Hourly Data Report for June 29, 2021

LYTTON RCS
BRITISH COLUMBIA
Current Station Operator: ECCC - MSC

50°13'28.000" N
121°34'55.000" W
225.00 m
1114746
71765
VLY

Download Data

Hourly Data (June 2021)
Hourly Data Report for June 29, 2021
TIME
LST
Temp Definition
°C
Dew Point Definition
°C
Rel Hum Definition
%
Precip. Amount Definition
mm

Wind Dir Definition
10's deg

Wind Spd Definition
km/h
Visibility Definition
km
Stn Press Definition
kPa
Hmdx Definition


Wind Chill Definition


Weather Definition


00:00 28.3 13.4 40 0.0 16 6   98.11 31   LegendNANA
01:00 27.1 13.6 43 0.0 15 12   98.15 30   LegendNANA
02:00 25.9 13.7 47 0.0 16 12   98.21 29   LegendNANA
03:00 23.7 13.7 54 0.0 14 6   98.27 27   LegendNANA
04:00 21.9 13.5 59 0.0 13 1   98.33 25   LegendNANA
05:00 21.3 13.8 62 0.0 15 5   98.40 25   LegendNANA
06:00 21.3 14.1 63 0.0 17 4   98.42 25   LegendNANA
07:00 23.8 13.6 53 0.0 15 7   98.41 27   LegendNANA
08:00 28.8 13.0 38 0.0 15 7   98.33 32   LegendNANA
09:00 33.4 12.9 29 0.0 19 1   98.23 36   LegendNANA
10:00 36.3 10.8 21 0.0 6 2   98.12 38   LegendNANA
11:00 38.7 11.0 19 0.0 23 3   98.01 40   LegendNANA
12:00 42.0 11.5 17 0.0 18 4   97.88 44   LegendNANA
13:00 46.2 7.7 10 0.0 17 8   97.75 46   LegendNANA
14:00 47.4 5.1 8 0.0 19 5   97.65 47   LegendNANA
15:00 49.4 6.1 8 0.0 18 14   97.55 49   LegendNANA
16:00 48.6 6.6 8 0.0 20 7   97.47 48   LegendNANA
17:00 48.0 8.0 10 0.0 23 2   97.40 48   LegendNANA
18:00 44.7 11.2 14 0.0 17 5   97.35 47   LegendNANA
19:00 40.3 11.5 18 0.0 15 16   97.35 42   LegendNANA
20:00 36.9 12.3 23 0.0 14 7   97.39 39   LegendNANA
21:00 37.0 11.3 21 0.0 16 19   97.50 39   LegendNANA
22:00 35.7 14.3 28 0.0 16 20   97.60 39   LegendNANA
23:00 33.4 16.1 36 0.0 15 16   97.69 38   LegendNANA

Notes on Data Quality.

Legend

  • E = Estimated
  • M = Missing
  • NA = Not Available*
  • [empty] = Indicates an unobserved value
Date modified: